Regional Weather Roundup
Issued by NWS Green Bay, WI

Home | Current Version | Previous Version | Graphics & Text | Print | Product List | Glossary Off
Versions: 1 2 3 4 5 6 7 8 9 10 11 12 13 14 15 16 17 18 19 20 21 22 23 24 25 26 27 28 29 30 31 32 33 34 35 36 37 38 39 40 41 42 43 44 45 46 47 48 49 50

000
ASUS43 KGRB 240001
RWRGRB

NORTH-CENTRAL AND NORTHEAST WISCONSIN REGIONAL WEATHER ROUNDUP
NATIONAL WEATHER SERVICE GREEN BAY WI
700 PM CDT SUN JUL 23 2017

WIZ005-009-010>012-018-019-240100-
NORTH CENTRAL WISCONSIN

CITY           SKY/WX    TMP DP  RH WIND       PRES   REMARKS
IRONWOOD       CLOUDY    60  57  89 NE5       30.01S
MANITOWISH WTR NOT AVBL
ARBOR VITAE    NOT AVBL
EAGLE RIVER    NOT AVBL
LAND O LAKES   NOT AVBL
RHINELANDER    CLOUDY    62  57  83 NE9       29.99R
PHILLIPS       CLOUDY    63  59  86 N10       29.98R
ANTIGO         NOT AVBL
TOMAHAWK       NOT AVBL
MERRILL        NOT AVBL
$$

WIZ013-073-240100-
NORTHEAST WISCONSIN

CITY           SKY/WX    TMP DP  RH WIND       PRES   REMARKS
IRON MOUNTAIN  CLOUDY    63  54  72 N12G20    29.93S
MARINETTE      PTSUNNY   65  56  72 N15       29.90R
$$

WIZ017-030-035>037-045-240100-
CENTRAL WISCONSIN

CITY           SKY/WX    TMP DP  RH WIND       PRES   REMARKS
MEDFORD        NOT AVBL
WAUSAU         MOSUNNY   69  58  67 N12G18    29.91R
MOSINEE        MOSUNNY   70  57  64 N15G23    29.92R
MARSHFIELD     MOSUNNY   69  57  65 N14G26    29.92R
WISC RAPIDS    SUNNY     76  60  57 N12G22    29.89R
STEVENS POINT  NOT AVBL
WAUPACA        NOT AVBL
SHAWANO        NOT AVBL
CLINTONVILLE   NOT AVBL
WAUTOMA        MOSUNNY   77  62  59 N9        29.86R
$$

WIZ038-039-048-051-240100-
FOX VALLEY

CITY           SKY/WX    TMP DP  RH WIND       PRES   REMARKS
NWS GREEN BAY  PTSUNNY   73  63  70 N17G24    29.87R
APPLETON       PTSUNNY   72  63  73 NE16G22     N/A
OSHKOSH        PTSUNNY   76  63  64 NE7       29.83R
FOND DU LAC    PTSUNNY   77  60  55 N12       29.84R
$$

WIZ022-050-052-240100-
EAST CENTRAL WISCONSIN

CITY           SKY/WX    TMP DP  RH WIND       PRES   REMARKS
EPHRAIM        NOT AVBL
WASHINGTON ISL NOT AVBL
STURGEON BAY     N/A     65  59  81 N20G26    29.88R
MANITOWOC      NOT AVBL
SHEBOYGAN      CLOUDY    70  67  90 NE14      29.85R
$$

LMZ563-521-522-541>543-240100-
LAKESHORE

STATION/POSITION TIME  TEMP    WIND        PRES    VSBY  WAVE
                       AIR SEA DIR/SP/G                  HT/PER
                 (UTC) (F)     (DEG/KT/KT) (MB)    (MI)  (FT/S)
SHEBOYGAN LKSHOR 2300   70      40/  7/  7 1009.4R
KEWAUNEE LKSHORE 2330   70     360/  6/ 14 1010.0R
NORTHPORT PIER   2340   65     350/ 21/ 24 1011.2R
S GREEN BAY BUOY 2330   70 73  360/ 19/ 23 1011.0R
SISTER BAY LKSHO 2317   64     350/ 16/ 23   N/A
CHAMBERS ISLAND  2340   66     340/ 21/ 24 1011.2R
MENOMINEE LKSHOR 2330   65     340/ 24/ 29 1011.3R
$$




USA.gov is the U.S. government's official web portal to all federal, state and local government web resources and services.